[[{"header":{"parameterUnit":"m.s-1","parameterCategory":1,"la1":30.2991,"la2":30.254,"lo1":-89.0895,"lo2":-89.0444,"dy":0.0017,"dx":0.0017,"nx":28,"ny":28,"refTime":"2023-10-30T09:00:00:Z","depth":0,"parameterNumber":2,"parameterNumberName":"U-component_of_WINDS"},"data":[0,0,0,0,0,0,0,0,0,0,0,0,0,0,0,0,0,0,0,0,0,0,0,0,0,0,0,0,0,0,0,0,0,0,0,0,0,0,0,0,0,0,0,0,0,0,0,0,0,0,0,0,0,0,0,0,0,0,0.0945,0.0944,0,0.0849,0.0848,0.0847,0.0838,0.0839,0.084,0.0841,0.074,0.0736,0.0733,0,0,0,0,0,0,0,0,0,0,0,0,0,0.1118,0.1114,0.0945,0.0943,0.0942,0.0849,0.0848,0.0846,0.0838,0.0839,0.084,0.0841,0.0741,0.0737,0.0732,0,0,0,0,0,0,0,0,0,0,0,0,0,0.1034,0.1113,0.0945,0.0927,0.0924,0.0849,0.0848,0.0846,0.0837,0.0839,0.084,0.0842,0.0742,0.0737,0.0732,0.0668,0,0,0.0715,0.0713,0,0,0,0,0,0,0,0,0.1039,0.1028,0.093,0.0928,0.0925,0.0857,0.0872,0.0786,0.0837,0.087,0.0841,0.0843,0.0777,0.0769,0.0748,0.0663,0.0659,0.0715,0.0711,0.0709,0.0708,0,0,0,0,0,0,0,0.1045,0.1032,0.0907,0.0929,0.0926,0.0923,0.0912,0.0856,0.0816,0.0867,0.0866,0.0855,0.0776,0.0753,0.0745,0.0657,0.0715,0.071,0.0707,0.0705,0.0516,0.0514,0,0,0,0,0,0,0.1054,0.1037,0.091,0.0904,0.0987,0.0918,0.0907,0.0877,0.0817,0.0809,0.0854,0.0855,0.0762,0.0752,0.0742,0.0662,0.0709,0.0704,0.0701,0.0517,0.0515,0.0513,0,0,0,0,0,0,0.1058,0.1043,0.0914,0.097,0.0953,0.0914,0.088,0.0874,0.0851,0.0807,0.08,0.0838,0.0762,0.0749,0.0687,0.0659,0.0702,0.0697,0.0519,0.0517,0.0514,0.0503,0,0,0,0,0,0,0.1063,0.1044,0.102,0.097,0.095,0.086,0.0879,0.0871,0.0842,0.0843,0.079,0.0783,0.0763,0.0695,0.0681,0.0652,0.0692,0.0522,0.0518,0.0515,0.0506,0.0501,0.0496,0,0,0,0,0,0.1069,0.102,0.1019,0.1003,0.0919,0.0859,0.0848,0.0826,0.084,0.0815,0.0787,0.0784,0.0665,0.0688,0.0673,0.0642,0.0523,0.0519,0.0515,0.0508,0.0502,0.0496,0,0,0,0,0,0,0.1066,0.1013,0.1011,0.0944,0.0906,0.0857,0.0825,0.082,0.0777,0.0779,0.0754,0.0742,0.068,0.0655,0.0682,0.0577,0.0595,0.0588,0.0595,0.0589,0.0584,0.059,0.0688,0,0,0,0,0,0.1059,0.1015,0.097,0.0915,0.0897,0.0864,0.0837,0.0824,0.0784,0.0767,0.0734,0.0694,0.0648,0.0617,0.0572,0.0504,0.0491,0.0475,0.047,0.0466,0.0459,0.0421,0.0413,0.05,0.05,0.0501,0,0,0.1041,0.1006,0.098,0.0914,0.0883,0.0837,0.085,0.0802,0.0767,0.0759,0.0698,0.0673,0.0626,0.056,0.053,0.0537,0.0433,0.0461,0.0458,0.0453,0.0416,0.0408,0.04,0.0498,0.0498,0.0499,0,0,0.0984,0.0955,0.0905,0.0875,0.0828,0.0808,0.0796,0.0748,0.0731,0.067,0.0663,0.0622,0.0542,0.0509,0.0482,0.0416,0.0412,0.0403,0.0376,0.0339,0.0332,0.0326,0.0301,0.0292,0.0397,0.0396,0.0396,0,0.0967,0.0899,0.088,0.0832,0.0803,0.0796,0.0746,0.0717,0.0657,0.0637,0.0648,0.0548,0.0517,0.0443,0.0427,0.0406,0.0391,0.0407,0.0335,0.0328,0.0322,0.0298,0.0289,0.0395,0.0396,0.0396,0.0396,0,0.088,0.0833,0.0799,0.0744,0.0711,0.0662,0.0635,0.0605,0.0596,0.0574,0.0511,0.0474,0.0421,0.0403,0.0393,0.0328,0.0334,0.034,0.0357,0.0313,0.029,0.0281,0.0394,0.0394,0.0395,0.0395,0,0,0.0817,0.0753,0.0741,0.0715,0.0665,0.0628,0.0579,0.0528,0.0502,0.0463,0.042,0.0354,0.0359,0.0329,0.0316,0.0284,0.0233,0.0293,0.0292,0.0282,0.0157,0.0152,0.0141,0.0231,0.0229,0.0228,0.0161,0,0.0753,0.0666,0.0649,0.0573,0.0529,0.0523,0.048,0.0444,0.0423,0.0382,0.0359,0.0312,0.0323,0.0305,0.0273,0.0246,0.0207,0.0251,0.019,0.0188,0.0199,0.013,0.0123,0.0062,0.0152,0.015,0.0149,0,0.0667,0.0626,0.0546,0.0502,0.0483,0.0445,0.0398,0.0359,0.0319,0.0306,0.0273,0.0264,0.0212,0.0235,0.0163,0.0193,0.0167,0.0151,0.0148,0.0139,0.0164,0.0117,0.0042,0.0032,0.0135,0.0136,0.0137,0,0.0627,0.0552,0.0495,0.0474,0.0421,0.0395,0.0371,0.0333,0.0304,0.0263,0.0243,0.0197,0.017,0.0134,0.0113,0.0131,0.0042,0.0063,0.0029,0.0029,0.0008,0.0009,-0.0075,-0.0005,-0.0005,-0.0004,-0.0004,0,0.0556,0.0507,0.0476,0.044,0.0385,0.0366,0.0312,0.0289,0.0255,0.0214,0.0207,0.0169,0.0144,0.0102,0.0085,0.0028,0.0017,0.0004,-0.0001,0.0003,0.0004,-0.0016,-0.0013,-0.0007,-0.0006,-0.0006,-0.0005,0,0.05,0.0478,0.0414,0.0371,0.0359,0.032,0.0283,0.0248,0.0228,0.0177,0.0164,0.0132,0.0083,0.0058,-0.0003,-0.0014,-0.008,-0.008,-0.0066,-0.0068,-0.0102,-0.0099,-0.0204,-0.0219,-0.0136,-0.0137,-0.0138,0,0.0456,0.0418,0.0371,0.0344,0.0321,0.0277,0.0248,0.0229,0.0198,0.0151,0.0121,0.0072,0.0031,-0.0047,-0.0076,-0.0123,-0.0126,-0.0159,-0.0133,-0.0128,-0.0128,-0.0127,-0.0131,-0.0165,-0.0165,-0.0166,-0.0167,0,0.0378,0.037,0.0328,0.0283,0.0249,0.0212,0.0176,0.0154,0.0129,0.0096,0.0046,0.0015,-0.0047,-0.0096,-0.0144,-0.0168,-0.0172,-0.0174,-0.0185,-0.0183,-0.0174,-0.0181,-0.0081,-0.0172,-0.0172,-0.0171,-0.0171,-0.0171,0.0325,0.0292,0.0254,0.0208,0.0179,0.0146,0.0111,0.0088,0.0046,-0.0005,-0.0013,-0.0066,-0.0105,-0.017,-0.0195,-0.0237,-0.023,-0.0245,-0.025,-0.0254,-0.0256,-0.0164,-0.0246,-0.0246,-0.0246,-0.0246,-0.0246,0,0.0246,0.0222,0.0181,0.0131,0.0095,0.0097,0.0058,0.0027,-0.0019,-0.0054,-0.0093,-0.015,-0.0197,-0.0228,-0.0276,-0.0304,-0.0307,-0.0316,-0.0315,-0.0321,-0.0259,-0.0246,-0.0312,-0.0312,-0.0312,-0.0312,-0.0312,-0.0312,0.02,0.0143,0.013,0.0059,0.0035,-0.0016,-0.0039,-0.007,-0.0098,-0.0161,-0.0199,-0.0219,-0.0253,-0.0302,-0.0345,-0.0353,-0.0372,-0.0381,-0.0389,-0.0332,-0.0325,-0.0319,-0.0306,-0.0384,-0.0384,-0.0448,-0.0448,-0.0449]},{"header":{"parameterUnit":"m.s-1","parameterCategory":1,"la1":30.2991,"la2":30.254,"lo1":-89.0895,"lo2":-89.0444,"dy":0.0017,"dx":0.0017,"nx":28,"ny":28,"refTime":"2023-10-30T09:00:00:Z","depth":0,"parameterNumber":3,"parameterNumberName":"V-component_of_WINDS"},"data":[0,0,0,0,0,0,0,0,0,0,0,0,0,0,0,0,0,0,0,0,0,0,0,0,0,0,0,0,0,0,0,0,0,0,0,0,0,0,0,0,0,0,0,0,0,0,0,0,0,0,0,0,0,0,0,0,0,0,-9.2438,-9.2441,0,-9.2646,-9.2648,-9.265,-9.253,-9.2524,-9.2518,-9.2513,-9.2718,-9.2728,-9.2739,0,0,0,0,0,0,0,0,0,0,0,0,0,-9.1931,-9.1941,-9.2438,-9.2441,-9.2443,-9.2645,-9.2648,-9.2651,-9.2531,-9.2524,-9.2517,-9.251,-9.2714,-9.2727,-9.274,0,0,0,0,0,0,0,0,0,0,0,0,0,-9.2146,-9.1944,-9.2438,-9.2408,-9.2407,-9.2645,-9.2648,-9.2652,-9.2532,-9.2524,-9.2515,-9.2507,-9.271,-9.2726,-9.2742,-9.3018,0,0,-9.2792,-9.2799,0,0,0,0,0,0,0,0,-9.2134,-9.2165,-9.241,-9.241,-9.241,-9.2553,-9.2544,-9.2774,-9.2535,-9.2485,-9.2512,-9.2502,-9.267,-9.2689,-9.2746,-9.3028,-9.3036,-9.2793,-9.2803,-9.281,-9.2815,0,0,0,0,0,0,0,-9.2119,-9.2155,-9.252,-9.2413,-9.2414,-9.2382,-9.2403,-9.2587,-9.2623,-9.2488,-9.248,-9.2507,-9.2668,-9.2731,-9.275,-9.3039,-9.2793,-9.2807,-9.2817,-9.2824,-9.3557,-9.3566,0,0,0,0,0,0,-9.2107,-9.2144,-9.2513,-9.2526,-9.2248,-9.2398,-9.2421,-9.2516,-9.2621,-9.2629,-9.2514,-9.25,-9.2707,-9.2731,-9.2757,-9.3088,-9.281,-9.2825,-9.2835,-9.3548,-9.3559,-9.357,0,0,0,0,0,0,-9.2097,-9.2142,-9.2505,-9.2333,-9.2377,-9.2416,-9.2523,-9.2525,-9.2588,-9.2641,-9.2646,-9.2573,-9.2701,-9.2734,-9.2955,-9.3093,-9.2833,-9.2848,-9.3536,-9.3551,-9.3564,-9.3752,0,0,0,0,0,0,-9.2083,-9.2139,-9.2246,-9.2336,-9.2386,-9.2702,-9.2532,-9.2535,-9.2617,-9.2601,-9.2697,-9.2704,-9.2697,-9.2931,-9.2971,-9.3111,-9.286,-9.3524,-9.3543,-9.356,-9.3733,-9.3771,-9.3803,0,0,0,0,0,-9.2065,-9.2288,-9.2252,-9.2297,-9.2522,-9.271,-9.2738,-9.2728,-9.2629,-9.2736,-9.277,-9.2701,-9.3072,-9.2955,-9.2998,-9.3146,-9.3515,-9.3537,-9.3558,-9.3718,-9.3764,-9.3802,0,0,0,0,0,0,-9.2211,-9.23,-9.226,-9.252,-9.2609,-9.2689,-9.2824,-9.2777,-9.2894,-9.2874,-9.2853,-9.2876,-9.3106,-9.3147,-9.3015,-9.3418,-9.3277,-9.3309,-9.3384,-9.3427,-9.3462,-9.3447,-9.2874,0,0,0,0,0,-9.2273,-9.2421,-9.249,-9.2712,-9.2759,-9.2785,-9.2866,-9.2851,-9.2941,-9.2977,-9.3027,-9.3115,-9.3251,-9.3341,-9.3469,-9.3738,-9.3757,-9.3861,-9.3896,-9.3924,-9.3952,-9.4098,-9.4145,-9.3641,-9.3641,-9.3641,0,0,-9.2403,-9.247,-9.2565,-9.2743,-9.281,-9.2962,-9.2817,-9.2983,-9.3095,-9.3001,-9.3214,-9.3254,-9.335,-9.3597,-9.3707,-9.3638,-9.4095,-9.3952,-9.3974,-9.3987,-9.4125,-9.4172,-9.4215,-9.3656,-9.3653,-9.3651,0,0,-9.2719,-9.2785,-9.2978,-9.3048,-9.3153,-9.3168,-9.3214,-9.3303,-9.3327,-9.354,-9.3473,-9.3604,-9.3839,-9.3911,-9.3979,-9.4322,-9.4263,-9.4363,-9.4546,-9.4688,-9.4728,-9.4763,-9.4886,-9.493,-9.4391,-9.4391,-9.4392,0,-9.2867,-9.3096,-9.3082,-9.3255,-9.3335,-9.3259,-9.3454,-9.3522,-9.3662,-9.3718,-9.3639,-9.3933,-9.3993,-9.4255,-9.4339,-9.4396,-9.4447,-9.4353,-9.4723,-9.4758,-9.4791,-9.4908,-9.4954,-9.4403,-9.4402,-9.44,-9.4399,0,-9.3273,-9.3432,-9.3575,-9.3716,-9.3812,-9.3994,-9.4006,-9.4105,-9.408,-9.4104,-9.4321,-9.439,-9.4531,-9.4592,-9.4569,-9.4852,-9.4806,-9.4726,-9.4584,-9.4851,-9.4961,-9.5005,-9.442,-9.4415,-9.4412,-9.4409,0,0,-9.3686,-9.3818,-9.387,-9.3933,-9.4043,-9.4165,-9.4343,-9.4484,-9.4569,-9.4667,-9.4816,-9.5017,-9.4944,-9.502,-9.5004,-9.5129,-9.5397,-9.5033,-9.5035,-9.51,-9.5713,-9.5774,-9.5826,-9.5359,-9.5367,-9.5374,-9.5705,0,-9.4009,-9.4325,-9.4318,-9.4609,-9.4756,-9.4686,-9.4841,-9.4924,-9.4951,-9.5077,-9.5104,-9.5248,-9.514,-9.5186,-9.5306,-9.534,-9.552,-9.5315,-9.5495,-9.5502,-9.5475,-9.5883,-9.5948,-9.6258,-9.5748,-9.5755,-9.5761,0,-9.4429,-9.4545,-9.4853,-9.4942,-9.5003,-9.5143,-9.5271,-9.5394,-9.5485,-9.5495,-9.5582,-9.5546,-9.5725,-9.5578,-9.5823,-9.5684,-9.5757,-9.5784,-9.5796,-9.5813,-9.5649,-9.5913,-9.6356,-9.6403,-9.5828,-9.5822,-9.5818,0,-9.4701,-9.4933,-9.5148,-9.5204,-9.5312,-9.5413,-9.5462,-9.5545,-9.5631,-9.5742,-9.5796,-9.5926,-9.5997,-9.6097,-9.6097,-9.599,-9.6346,-9.6198,-9.6358,-9.6359,-9.6437,-9.6432,-9.69,-9.6483,-9.6482,-9.6481,-9.648,0,-9.5063,-9.5255,-9.5272,-9.5404,-9.5616,-9.5604,-9.5813,-9.5852,-9.5927,-9.6064,-9.6009,-9.6138,-9.6129,-9.6259,-9.6259,-9.6463,-9.6495,-9.6507,-9.6505,-9.6513,-9.6512,-9.6561,-9.654,-9.6493,-9.6491,-9.6488,-9.6486,0,-9.5404,-9.5423,-9.5653,-9.5737,-9.5763,-9.5915,-9.5986,-9.6111,-9.6132,-9.6306,-9.6346,-9.6378,-9.6529,-9.6538,-9.671,-9.671,-9.6958,-9.6931,-9.6929,-9.6924,-9.7084,-9.707,-9.7601,-9.767,-9.7207,-9.7211,-9.7215,0,-9.5635,-9.5781,-9.5882,-9.5971,-9.6027,-9.6171,-9.6258,-9.6252,-9.6345,-9.6461,-9.6571,-9.6717,-9.6833,-9.7075,-9.7113,-9.7244,-9.7221,-9.7398,-9.724,-9.7244,-9.7225,-9.7217,-9.7232,-9.7429,-9.7435,-9.7439,-9.7442,0,-9.6043,-9.6045,-9.6175,-9.6309,-9.6416,-9.652,-9.6617,-9.6692,-9.6696,-9.6803,-9.6958,-9.7048,-9.7226,-9.7371,-9.7499,-9.7546,-9.7496,-9.7492,-9.7536,-9.7546,-9.7539,-9.7546,-9.7014,-9.748,-9.7476,-9.7473,-9.7471,-9.747,-9.6336,-9.6463,-9.6555,-9.6701,-9.6773,-9.6866,-9.6987,-9.7025,-9.7154,-9.7301,-9.7288,-9.7459,-9.7546,-9.7714,-9.7772,-9.7904,-9.7843,-9.7907,-9.7923,-9.794,-9.7957,-9.7517,-9.7927,-9.7925,-9.7924,-9.7924,-9.7923,0,-9.6742,-9.6798,-9.6933,-9.7072,-9.7187,-9.7131,-9.7235,-9.7334,-9.7487,-9.7573,-9.769,-9.7867,-9.8007,-9.8056,-9.8192,-9.8289,-9.8269,-9.8325,-9.8318,-9.833,-9.8003,-9.7952,-9.8338,-9.8338,-9.8338,-9.8338,-9.8338,-9.8338,-9.6967,-9.7179,-9.7193,-9.744,-9.7493,-9.7663,-9.7728,-9.7812,-9.7881,-9.8083,-9.82,-9.8232,-9.8303,-9.8444,-9.857,-9.858,-9.8633,-9.8699,-9.87,-9.8394,-9.8353,-9.8313,-9.8265,-9.8711,-9.8711,-9.9016,-9.9019,-9.9021]}]]